EW3139 Weather Reports


time (UTC)temp
F
wind
direction
speed
knots
gust
knots
rain 1hr
in
rain 24hr
in
rain mn
in
humidity
%
barometer
mb
20260508102003 56 270 2.6 10.4 0.00 0.00 0.00 30 1024.9
20260508101004 56 258 2.6 7.8 0.00 0.00 0.00 32 1024.9
20260508100505 56 276 2.6 7.0 0.00 0.00 0.00 30 1024.9
20260508100004 56 331 1.7 7.0 0.00 0.00 0.00 31 1025.0
20260508095505 56 354 2.6 9.6 0.00 0.00 0.00 32 1024.9
20260508095004 55 355 2.6 9.6 0.00 0.00 0.00 31 1024.8
20260508094505 55 356 2.6 7.8 0.00 0.00 0.00 31 1024.9
20260508094004 55 315 2.6 8.7 0.00 0.00 0.00 30 1025.0
20260508093505 55 297 1.7 8.7 0.00 0.00 0.00 32 1024.8
20260508093004 55 343 1.7 7.8 0.00 0.00 0.00 32 1025.0
20260508092507 54 325 1.7 7.8 0.00 0.00 0.00 32 1024.9
20260508092004 54 328 1.7 7.0 0.00 0.00 0.00 32 1024.9
20260508091505 54 306 1.7 7.0 0.00 0.00 0.00 31 1024.8
20260508091004 54 275 2.6 11.3 0.00 0.00 0.00 32 1024.8
20260508090505 54 286 2.6 11.3 0.00 0.00 0.00 32 1024.9
20260508090005 54 320 0.9 5.2 0.00 0.00 0.00 32 1024.9
20260508085505 53 295 1.7 6.1 0.00 0.00 0.00 32 1024.8
20260508085004 53 291 2.6 7.8 0.00 0.00 0.00 32 1024.8
20260508084505 53 292 2.6 9.6 0.00 0.00 0.00 33 1024.8
20260508084004 53 319 3.5 11.3 0.00 0.00 0.00 32 1024.8
20260508083505 54 5 2.6 11.3 0.00 0.00 0.00 33 1024.8
20260508083005 54 5 1.7 9.6 0.00 0.00 0.00 33 1024.7
20260508082504 53 3 2.6 8.7 0.00 0.00 0.00 32 1024.6
20260508082004 53 345 2.6 8.7 0.00 0.00 0.00 33 1024.7
20260508081504 53 346 2.6 10.4 0.00 0.00 0.00 33 1024.7
20260508081004 53 327 2.6 10.4 0.00 0.00 0.00 35 1024.6
20260508080504 52 279 1.7 8.7 0.00 0.00 0.00 36 1024.6
20260508075504 51 351 2.6 11.3 0.00 0.00 0.00 36 1024.6
20260508075005 51 282 2.6 9.6 0.00 0.00 0.00 40 1024.5
20260508074504 51 272 3.5 9.6 0.00 0.00 0.00 40 1024.4
20260508074007 51 280 2.6 8.7 0.00 0.00 0.00 42 1024.4
20260508073505 51 281 1.7 4.3 0.00 0.00 0.00 46 1024.3
20260508073004 51 267 1.7 9.6 0.00 0.00 0.00 46 1024.3
20260508072505 50 274 2.6 9.6 0.00 0.00 0.00 45 1024.3
20260508072004 50 286 1.7 7.0 0.00 0.00 0.00 49 1024.2
20260508071504 50 290 1.7 7.0 0.00 0.00 0.00 50 1024.2
20260508071006 50 280 0.9 6.1 0.00 0.00 0.00 53 1024.2
20260508070505 50 292 1.7 6.1 0.00 0.00 0.00 55 1024.1
20260508065505 49 259 1.7 7.0 0.00 0.00 0.00 58 1024.0
20260508065004 48 280 0.9 5.2 0.00 0.00 0.00 61 1023.9
20260508064505 48 273 1.7 7.0 0.00 0.00 0.00 61 1023.9
20260508064004 48 270 1.7 7.0 0.00 0.00 0.00 60 1023.9
20260508063505 47 267 0.9 6.1 0.00 0.00 0.00 63 1023.9
20260508062505 47 282 0.9 4.3 0.00 0.00 0.00 67 1023.8
20260508061505 46 249 1.7 3.5 0.00 0.00 0.00 70 1023.7
20260508061005 45 247 1.7 5.2 0.00 0.00 0.00 71 1023.6
20260508060004 44 253 1.7 5.2 0.00 0.00 0.00 74 1023.5
20260508055506 44 265 0.9 5.2 0.00 0.00 0.00 75 1023.5
20260508055005 43 221 0.9 3.5 0.00 0.00 0.00 77 1023.4
20260508054506 43 217 1.7 4.3 0.00 0.00 0.00 78 1023.4
20260508054004 42 219 1.7 4.3 0.00 0.00 0.00 79 1023.3
20260508053505 42 220 1.7 4.3 0.00 0.00 0.00 81 1023.3
20260508053004 41 230 1.7 5.2 0.00 0.00 0.00 82 1023.2
20260508052506 40 258 0.9 5.2 0.00 0.00 0.00 83 1023.2
20260508052003 40 275 0.9 5.2 0.00 0.00 0.00 84 1023.0
20260508051505 40 268 1.7 5.2 0.00 0.00 0.00 84 1023.1
20260508051004 39 239 1.7 5.2 0.00 0.00 0.00 85 1023.0
20260508050505 39 221 1.7 3.5 0.00 0.00 0.00 85 1022.9
20260508050008 38 229 1.7 5.2 0.00 0.00 0.00 86 1022.9
20260508045505 38 215 2.6 5.2 0.00 0.00 0.00 86 1022.8
20260508045004 38 199 1.7 5.2 0.00 0.00 0.00 87 1022.8
20260508043506 37 259 1.7 6.1 0.00 0.00 0.00 89 1022.7
20260508043004 37 248 1.7 6.1 0.00 0.00 0.00 90 1022.7
20260508041504 35 245 1.7 3.5 0.00 0.00 0.00 93 1022.5
20260508041004 35 230 0.9 3.5 0.00 0.00 0.00 94 1022.4
20260508040507 34 219 0.0 2.6 0.00 0.00 0.00 94 1022.4
20260508035004 32 217 0.9 2.6 0.00 0.00 0.00 94 1022.2
20260508034505 31 216 0.0 2.6 0.00 0.00 0.00 94 1022.2
20260508034004 30 215 0.0 1.7 0.00 0.00 0.00 93 1022.1
20260508033006 30 215 0.0 2.6 0.00 0.00 0.00 94 1022.0
20260508032504 29 215 0.0 2.6 0.00 0.00 0.00 93 1022.0
20260508031504 28 203 0.0 0.9 0.00 0.00 0.00 92 1021.9
20260508025505 28 0 0.0 0.0 0.00 0.00 0.00 90 1021.8
20260508025004 28 0 0.0 0.0 0.00 0.00 0.00 90 1021.6
20260508024505 28 0 0.0 0.0 0.00 0.00 0.00 90 1021.7
20260508024005 28 0 0.0 0.0 0.00 0.00 0.00 90 1021.7
20260508023005 28 0 0.0 0.0 0.00 0.00 0.00 90 1021.6
20260508022504 28 0 0.0 0.0 0.00 0.00 0.00 90 1021.5
20260508022007 28 0 0.0 0.0 0.00 0.00 0.00 90 1021.5
20260508021504 28 0 0.0 0.0 0.00 0.00 0.00 90 1021.4
20260508021005 28 0 0.0 0.0 0.00 0.00 0.00 89 1021.4
20260508020504 28 0 0.0 0.0 0.00 0.00 0.00 89 1021.3
20260508015005 28 0 0.0 0.0 0.00 0.00 0.00 89 1021.3
20260508014504 29 0 0.0 0.0 0.00 0.00 0.00 89 1021.2
20260508014005 29 203 0.0 1.7 0.00 0.00 0.00 89 1021.1
20260508013504 29 203 0.0 1.7 0.00 0.00 0.00 88 1021.1
20260508013006 29 0 0.0 0.0 0.00 0.00 0.00 87 1021.0
20260508012504 29 0 0.0 0.0 0.00 0.00 0.00 87 1021.0
20260508012005 29 0 0.0 0.0 0.00 0.00 0.00 87 1020.9
20260508011005 30 0 0.0 0.0 0.00 0.00 0.00 87 1020.8
20260508010504 30 0 0.0 0.0 0.00 0.00 0.00 87 1020.8
20260508010006 30 0 0.0 0.0 0.00 0.00 0.00 86 1020.8
20260508005504 31 0 0.0 0.0 0.00 0.00 0.00 86 1020.7
20260508005005 31 0 0.0 0.0 0.00 0.00 0.00 85 1020.7
20260508004504 31 0 0.0 0.0 0.00 0.00 0.00 85 1020.6
20260508004005 31 0 0.0 0.0 0.00 0.00 0.00 86 1020.6
20260508003504 32 0 0.0 0.0 0.00 0.00 0.00 86 1020.5
20260508003006 32 0 0.0 0.0 0.00 0.00 0.00 86 1020.5
20260508002505 32 203 0.0 0.9 0.00 0.00 0.00 86 1020.5
20260508002004 32 203 0.0 0.9 0.00 0.00 0.00 85 1020.5
20260508001505 32 203 0.0 1.7 0.00 0.00 0.00 84 1020.4
20260508001004 33 203 0.0 1.7 0.00 0.00 0.00 83 1020.4
20260508000005 33 202 0.0 1.7 0.00 0.00 0.00 82 1020.3
20260507235504 34 223 0.0 1.7 0.00 0.00 0.00 82 1020.2
20260507235006 34 282 0.0 2.6 0.00 0.00 0.00 82 1020.2
20260507234504 34 281 0.0 2.6 0.00 0.00 0.00 82 1020.1
20260507234005 34 276 0.0 1.7 0.00 0.00 0.00 81 1020.0
20260507233504 35 271 0.0 1.7 0.00 0.00 0.00 80 1020.1
20260507233006 35 269 0.9 2.6 0.00 0.00 0.00 81 1020.0
20260507231504 35 282 0.9 4.3 0.00 0.00 0.00 80 1019.9
20260507231006 35 274 0.9 6.1 0.00 0.00 0.00 80 1019.9
20260507230504 35 273 0.9 6.1 0.00 0.00 0.00 80 1019.8
20260507230005 35 265 0.0 1.7 0.00 0.00 0.00 79 1019.8
20260507225504 35 235 0.0 1.7 0.00 0.00 0.00 79 1019.7
20260507224504 35 274 0.9 3.5 0.00 0.00 0.00 79 1019.6
20260507222505 35 253 0.0 1.7 0.00 0.00 0.00 79 1019.4
20260507222004 35 253 0.0 3.5 0.00 0.00 0.00 79 1019.4
20260507221505 34 242 0.9 3.5 0.00 0.00 0.00 79 1019.3
20260507221004 34 234 0.0 2.6 0.00 0.00 0.00 79 1019.3
20260507220505 34 248 0.0 1.7 0.00 0.00 0.00 79 1019.2
20260507220004 34 248 0.0 1.7 0.00 0.00 0.00 78 1019.3
20260507215505 34 251 0.0 1.7 0.00 0.00 0.00 78 1019.2
20260507215004 35 251 0.0 1.7 0.00 0.00 0.00 77 1019.1
20260507214505 35 252 0.0 0.9 0.00 0.00 0.00 77 1019.0
20260507214004 35 0 0.0 0.0 0.00 0.00 0.00 77 1019.0
20260507213004 35 257 0.0 2.6 0.00 0.00 0.00 77 1018.9
20260507212506 35 267 0.9 2.6 0.00 0.00 0.00 78 1018.8
20260507212003 35 270 0.0 1.7 0.00 0.00 0.00 78 1018.8
20260507211506 34 257 0.0 0.9 0.00 0.00 0.00 77 1018.8
20260507211004 35 257 0.0 0.9 0.00 0.00 0.00 76 1018.8
20260507210506 35 257 0.0 0.9 0.00 0.00 0.00 76 1018.7
20260507210006 35 257 0.0 0.9 0.00 0.00 0.00 75 1018.6
20260507205004 36 0 0.0 0.0 0.00 0.00 0.00 74 1018.6
20260507204505 36 0 0.0 0.0 0.00 0.00 0.00 73 1018.6
20260507204004 36 257 0.0 0.9 0.00 0.00 0.00 73 1018.5
20260507203505 36 252 0.0 1.7 0.00 0.00 0.00 73 1018.4
20260507203006 37 250 0.9 3.5 0.00 0.00 0.00 73 1018.4
20260507202504 37 250 0.9 3.5 0.00 0.00 0.00 73 1018.3
20260507202005 37 265 0.0 0.9 0.00 0.00 0.00 72 1018.3
20260507201504 37 0 0.0 0.0 0.00 0.00 0.00 71 1018.3
20260507201005 38 0 0.0 0.0 0.00 0.00 0.00 70 1018.2
20260507200006 38 265 0.0 1.7 0.00 0.00 0.00 69 1018.2
20260507195504 38 264 0.0 1.7 0.00 0.00 0.00 69 1018.2
20260507195006 39 264 0.0 1.7 0.00 0.00 0.00 68 1018.1
20260507194006 39 264 0.0 1.7 0.00 0.00 0.00 67 1017.9
20260507193006 40 260 0.0 3.5 0.00 0.00 0.00 65 1017.8
20260507192006 40 266 0.0 2.6 0.00 0.00 0.00 65 1017.7
20260507191504 41 274 0.0 2.6 0.00 0.00 0.00 64 1017.7
20260507191006 41 276 0.0 2.6 0.00 0.00 0.00 64 1017.6
20260507190005 41 275 0.9 5.2 0.00 0.00 0.00 63 1017.5
20260507185506 42 277 0.0 5.2 0.00 0.00 0.00 62 1017.5
20260507185004 42 299 0.0 2.6 0.00 0.00 0.00 62 1017.4
20260507184505 42 306 0.0 4.3 0.00 0.00 0.00 62 1017.4
20260507184004 42 298 0.9 4.3 0.00 0.00 0.00 61 1017.3
20260507183507 42 292 0.0 4.3 0.00 0.00 0.00 61 1017.3
20260507182506 43 287 0.9 3.5 0.00 0.00 0.00 60 1017.1
20260507182004 43 279 0.9 6.1 0.00 0.00 0.00 60 1017.1
20260507181004 43 282 0.9 7.0 0.00 0.00 0.00 58 1017.0
20260507180506 44 284 0.9 7.0 0.00 0.00 0.00 58 1016.9
20260507180004 44 296 0.9 5.2 0.00 0.00 0.00 57 1016.9
20260507175506 44 287 1.7 7.8 0.00 0.00 0.00 56 1016.8
20260507174505 44 277 1.7 9.6 0.00 0.00 0.00 54 1016.7
20260507174004 45 283 1.7 9.6 0.00 0.00 0.00 53 1016.7
20260507173505 45 281 3.5 13.0 0.00 0.00 0.00 52 1016.6
20260507173004 45 278 2.6 13.0 0.00 0.00 0.00 50 1016.5
20260507172506 46 304 0.9 5.2 0.00 0.00 0.00 50 1016.4
20260507172005 46 307 1.7 7.0 0.00 0.00 0.00 49 1016.4
20260507171505 46 295 1.7 7.0 0.00 0.00 0.00 49 1016.4
20260507171004 47 286 1.7 8.7 0.00 0.00 0.00 52 1016.3
20260507170006 47 313 1.7 7.0 0.00 0.00 0.00 49 1016.1
20260507165504 47 317 0.9 7.0 0.00 0.00 0.00 48 1016.1
20260507165005 47 294 1.7 8.7 0.00 0.00 0.00 47 1016.0
20260507164504 47 273 3.5 9.6 0.00 0.00 0.00 47 1016.0
20260507164006 48 265 3.5 13.9 0.00 0.00 0.00 46 1015.9
20260507163504 48 274 2.6 13.9 0.00 0.00 0.00 45 1015.9
20260507163006 48 295 1.7 6.1 0.00 0.00 0.00 46 1015.9
20260507162006 48 285 2.6 9.6 0.00 0.00 0.00 44 1015.8
20260507161506 48 284 1.7 7.8 0.00 0.00 0.00 43 1015.7
20260507161005 49 293 1.7 11.3 0.00 0.00 0.00 43 1015.7
20260507160504 48 301 1.7 11.3 0.00 0.00 0.00 44 1015.6
20260507160005 49 304 0.9 7.0 0.00 0.00 0.00 43 1015.6
20260507155504 49 283 2.6 13.0 0.00 0.00 0.00 44 1015.6
20260507154504 49 277 3.5 13.0 0.00 0.00 0.00 44 1015.4
20260507154008 49 280 3.5 11.3 0.00 0.00 0.00 42 1015.4
20260507153506 49 283 2.6 12.2 0.00 0.00 0.00 44 1015.3
20260507153004 50 276 3.5 12.2 0.00 0.00 0.00 43 1015.3
20260507152004 50 285 3.5 12.2 0.00 0.00 0.00 42 1015.2
20260507151506 50 303 2.6 13.9 0.00 0.00 0.00 42 1015.1
20260507151004 50 283 3.5 13.9 0.00 0.00 0.00 41 1015.1
20260507150506 50 279 4.3 13.9 0.00 0.00 0.00 39 1015.0
20260507150005 50 280 2.6 13.0 0.00 0.00 0.00 38 1015.0
20260507145506 51 265 2.6 11.3 0.00 0.00 0.00 40 1014.9
20260507144506 51 286 3.5 14.8 0.00 0.00 0.00 40 1014.9
20260507144004 50 272 4.3 13.9 0.00 0.00 0.00 41 1014.7
20260507143506 50 263 4.3 13.9 0.00 0.00 0.00 43 1014.7
20260507143004 50 270 3.5 12.2 0.00 0.00 0.00 45 1014.7
20260507142506 51 274 3.5 12.2 0.00 0.00 0.00 46 1014.5
20260507142004 50 280 4.3 14.8 0.00 0.00 0.00 47 1014.5
20260507141505 51 282 4.3 14.8 0.00 0.00 0.00 45 1014.5
20260507140505 51 271 5.2 14.8 0.00 0.00 0.00 42 1014.4
20260507140005 51 261 6.1 14.8 0.00 0.00 0.00 42 1014.3
20260507135506 51 256 6.1 15.6 0.00 0.00 0.00 43 1014.3
20260507135006 51 253 7.0 15.6 0.00 0.00 0.00 43 1014.2
20260507134504 51 249 7.0 13.0 0.00 0.00 0.00 42 1014.2
20260507134006 51 253 6.1 14.8 0.00 0.00 0.00 44 1014.1
20260507133504 51 252 6.1 15.6 0.00 0.00 0.00 46 1014.1
20260507132504 51 239 6.1 15.6 0.00 0.00 0.00 46 1014.1
20260507131504 51 221 7.0 13.9 0.00 0.00 0.00 45 1013.9
20260507131006 52 227 6.1 13.9 0.00 0.00 0.00 45 1013.9
20260507130504 51 240 6.1 13.0 0.00 0.00 0.00 46 1013.9
20260507130006 51 242 5.2 12.2 0.00 0.00 0.00 47 1014.0
20260507125504 51 247 5.2 12.2 0.00 0.00 0.00 48 1014.0
20260507125006 50 248 5.2 12.2 0.00 0.00 0.00 48 1014.0
20260507124504 50 231 6.1 12.2 0.00 0.00 0.00 48 1014.1
20260507123504 51 215 6.1 12.2 0.00 0.00 0.00 48 1014.1
20260507123005 51 219 6.1 11.3 0.00 0.00 0.00 45 1014.1
20260507122504 51 205 7.0 13.9 0.00 0.00 0.00 45 1014.0
20260507122006 51 211 7.0 13.9 0.00 0.00 0.00 45 1014.0
20260507121504 51 247 6.1 13.0 0.00 0.00 0.00 47 1014.0
20260507121006 50 236 6.1 13.0 0.00 0.00 0.00 47 1014.0
20260507120505 49 224 6.1 13.0 0.00 0.00 0.00 46 1014.0
20260507120005 49 234 6.1 12.2 0.00 0.00 0.00 46 1014.0
20260507115505 50 233 7.0 12.2 0.00 0.00 0.00 45 1014.1
20260507115004 50 221 6.1 14.8 0.00 0.00 0.00 44 1014.1
20260507114505 51 218 6.1 14.8 0.00 0.00 0.00 42 1014.1
20260507114004 52 216 6.1 12.2 0.00 0.00 0.00 42 1014.0
20260507113506 52 212 6.1 12.2 0.00 0.00 0.00 41 1014.1
20260507113005 51 230 6.1 13.0 0.00 0.00 0.00 41 1014.1
20260507112005 51 245 6.1 13.0 0.00 0.00 0.00 39 1014.1
20260507111507 51 229 5.2 13.0 0.00 0.00 0.00 38 1014.1
20260507110506 50 234 5.2 13.9 0.00 0.00 0.00 36 1014.0
20260507110004 49 217 5.2 12.2 0.00 0.00 0.00 36 1014.0
20260507105506 49 190 4.3 8.7 0.00 0.00 0.00 36 1013.9
20260507105004 49 194 4.3 8.7 0.00 0.00 0.00 36 1013.9
20260507104506 49 219 6.1 16.5 0.00 0.00 0.00 36 1014.0
20260507104004 49 236 6.1 16.5 0.00 0.00 0.00 36 1014.2
20260507103506 50 230 5.2 12.2 0.00 0.00 0.00 35 1014.0
20260507103004 49 225 5.2 11.3 0.00 0.00 0.00 35 1013.9